SGASSGES

Guest
Details From SGAS - SILVIO PETTIROSSI INTL
To SGES - GUARANI INTL
Flight Number -
Tags generated
Created
Modified
Stats Distance 146 nm / 270 km
Max Altitude 17,700 ft / 5,395 m
Waypoints 3
Social Downloads 4
Likes 0
Share VATSIM

Download

Looking for another format? Having issues loading an existing format? Contact us
Advertisement - Login to hide

Notes

Basic altitude profile: - Ascent Rate: 2500ft/min - Ascent Speed: 250kts - Cruise Altitude: 35000ft - Cruise Speed: 420kts - Descent Rate: 1500ft/min - Descent Speed: 250kts Options: - Use NATs: yes - Use PACOTS: yes - Use low airways: yes - Use high airways: yes

Route

SGAS ROLOK SGES

ID Type Via Altitude Latitude Longitude Leg Dist Tot Dist Heading (true) Name
O SGAS APT - 0 ft / 0 m -25.23985˚ -57.51914˚ - 0 nm - SILVIO PETTIROSSI INTL
ROLOK FIX - 17,700 ft / 5,395 m -25.29889˚ -56.60389˚ 49 nm 49 nm 94° / 94° -
O SGES APT - 0 ft / 0 m -25.45550˚ -54.84359˚ 95 nm 145 nm 96° / 95° GUARANI INTL

Altitude Profile

Advertisement - Login to hide

SGAS

Details ICAO SGAS (ASU)
Name SILVIO PETTIROSSI INTL
Region Paraguay
Timezone America/Asuncion (UTC-4.0)
Stats Elevation 292 ft / 89 m (AMSL)
Location -25.239850° -57.519135°
Runways 1
Magnetic Variation 14.236° W

METAR

SGAS 242200Z VRB03KT CAVOK 17/11 Q1020

Decode

TAF

TAF SGAS 241745Z 2418/2518 VRB03KT CAVOK TX23/2519Z TN09/2509Z

Decode

Departure Runways

ID Width Length Bearing (true) Bearing (mag) Surface Threshold Offset Overrun Length
02 151 ft / 46 m 11,043 ft / 3,366 m 12.40° 26.64° Asphalt 0 ft / 0 m 161 ft / 49 m
20 151 ft / 46 m 11,043 ft / 3,366 m 192.40° 206.64° Asphalt 0 ft / 0 m 165 ft / 50 m

SGES

Details ICAO SGES (AGT)
Name GUARANI INTL
Region Paraguay
Timezone America/Asuncion (UTC-4.0)
Stats Elevation 846 ft / 258 m (AMSL)
Location -25.455499° -54.843593°
Runways 1
Magnetic Variation 16.156° W

METAR

SGES 242200Z 10005KT 9999 SCT027 BKN070 19/16 Q1021

Decode

TAF

TAF SGES 241745Z 2418/2518 36003KT CAVOK TX23/2419Z TN10/2509Z

Decode

Destination Runways

ID Width Length Bearing (true) Bearing (mag) Surface Threshold Offset Overrun Length
05 148 ft / 45 m 11,175 ft / 3,406 m 40.64° 56.80° Asphalt 0 ft / 0 m 197 ft / 60 m
23 148 ft / 45 m 11,175 ft / 3,406 m 220.63° 236.79° Asphalt 0 ft / 0 m 197 ft / 60 m

Approach Navaids

Runway Type Ident Frequency Range Bearing (true) Bearing (mag) Slope Elevation
23 Localiser ICES 111.30 MHz 18 nm / 33 km 220.63° 236.79° - 846 ft / 258 m (AMSL)
23 Glidescope ICES 111.30 MHz 10 nm / 19 km 220.63° 236.79° 3.00° 804 ft / 245 m (AMSL)

Popular Alternatives